Orbital Elements at Epoch 2459000.5 (2020-May-31.0) TDB
Reference: JPL 15 (heliocentric ecliptic J2000)
Element | Value | Uncertainty (1-sigma) | Units |
e | .1050572552516128 | 8.586e-08 | |
a | 2.640452542047433 | 2.6689e-08 | au |
q | 2.363053845357786 | 2.2541e-07 | au |
i | 5.161544813237867 | 6.9957e-06 | deg |
node | 132.8349226246459 | 8.5693e-05 | deg |
peri | 204.9566840423967 | 9.2202e-05 | deg |
M | 166.0613248243011 | 3.6359e-05 | deg |
tp | 2458277.593759728816 (2018-Jun-08.09375973) | 0.00015577 | TDB |
period | 1567.169518688208 4.29 | 2.376e-05 6.505e-08 | d yr |
n | .2297135030429486 | 3.4828e-09 | deg/d |
Q | 2.91785123873708 | 2.9492e-08 | au |
|
| | Orbit Determination Parameters
Additional Information
|